Meteo Giornale » Osservazioni meteo Egitto » Cairo

ore: 15:30 - Osservazioni Meteo Cairo
Lat. 30° 8' N Lon. 31° 24' E Alt. 64 metri s.l.m.

molto_nuvoloso Africa/Cairo

19 °C

Molto Nuvoloso

Temp. 24 Ore

15 °C

23 °C

Sud

13 Km/h

Dew point 5 °C

Umidità 39 %

Visibilità  6 Km

Il sole sorge alle ore 06:39

Il sole tramonta alle ore 16:56

Data e Ora Cielo e Fenomeni T °C DP °C Um. % Pres. hPa Vis. km Vento km/h
Oggi h: 15:30 molto_nuvoloso Molto Nuvoloso 19 5 39 1013 6 S 13
Oggi h: 15:00 molto_nuvoloso Molto Nuvoloso 19 5 39 1013 6 S/SO 16.7
Oggi h: 14:30 molto_nuvoloso Molto Nuvoloso 19 4 37 1013 6 S/SO 16.7
Oggi h: 14:00 molto_nuvoloso Molto Nuvoloso 19 4 37 1013 6 S/SO 20.3
Oggi h: 13:30 molto_nuvoloso Molto Nuvoloso 19 3 34 1013 6 S/SO 24
Oggi h: 13:00 molto_nuvoloso Molto Nuvoloso 18 3 36 1013 6 S/SO 20.3
Oggi h: 12:30 molto_nuvoloso Molto Nuvoloso 18 3 36 1014 6 S/SO 22.2
Oggi h: 12:00 molto_nuvoloso Molto Nuvoloso 18 3 36 1014 6 S/SO 22.2
Oggi h: 11:30 molto_nuvoloso Molto Nuvoloso 18 4 39 1014 6 S/SO 16.7
Oggi h: 11:00 molto_nuvoloso Molto Nuvoloso 18 4 39 1015 6 S/SO 16.7
Oggi h: 10:30 nuvoloso Nuvoloso 17 5 45 1014 6 S 14.8
Oggi h: 10:00 nuvoloso Nuvoloso 17 4 41 1015 6 S 16.7
Oggi h: 09:30 nuvoloso Nuvoloso 17 5 45 1015 6 S 16.7
Oggi h: 09:00 nuvoloso Nuvoloso 16 5 47 1015 6 S 16.7
Oggi h: 08:30 nuvoloso Nuvoloso 16 5 47 1014 6 S 16.7
Oggi h: 08:00 nuvoloso Nuvoloso 16 5 47 1014 6 S 16.7
Oggi h: 07:30 molto_nuvoloso Molto Nuvoloso 15 5 51 1014 6 S/SE 14.8
Oggi h: 07:00 sereno Sereno 15 5 51 1014 6 S/SE 16.7
Oggi h: 06:30 sereno Sereno 15 5 51 1014 6 S/SE 16.7
Oggi h: 06:00 sereno Sereno 15 5 51 1014 6 S/SE 16.7
Oggi h: 05:30 sereno Sereno 15 5 51 1013 6 S 16.7
Oggi h: 05:00 sereno Sereno 16 5 47 1013 6 S 16.7
Oggi h: 04:30 sereno Sereno 16 5 47 1013 6 S 16.7
Oggi h: 04:00 sereno Sereno 16 5 47 1013 6 S 16.7
Oggi h: 03:30 sereno Sereno 16 5 47 1013 6 S 18.5
Oggi h: 03:00 sereno Sereno 17 5 45 1013 10 S 18.5
Oggi h: 02:30 sereno Sereno 17 5 45 1013 10 S 16.7
Oggi h: 02:00 sereno Sereno 17 5 45 1013 10 S 16.7
Oggi h: 01:30 sereno Sereno 17 5 45 1013 10 S 16.7
Oggi h: 01:00 sereno Sereno 17 5 45 1013 10 S 11.1
Oggi h: 00:30 sereno Sereno 18 5 42 1013 10 S 7.4
Oggi h: 00:00 sereno Sereno 18 5 42 1013 10 S/SE 16.7
Ieri h: 23:30 sereno Sereno 18 5 42 1013 10 S/SE 20.3
Ieri h: 23:00 sereno Sereno 18 5 42 1013 10 S/SE 20.3
Ieri h: 22:30 sereno Sereno 18 7 48 1013 10 S/SE 9.3
Ieri h: 22:00 sereno Sereno 18 7 48 1013 10 S/SE 9.3
Ieri h: 21:30 sereno Sereno 18 7 48 1013 10 E/SE 11.1
Ieri h: 21:00 sereno Sereno 18 7 48 1013 10 E/SE 11.1
Ieri h: 20:30 sereno Sereno 19 7 45 1013 10 SE 11.1
Ieri h: 20:00 sereno Sereno 19 7 45 1013 10 SE 11.1
Ieri h: 19:30 sereno Sereno 19 7 45 1013 10 S/SE 7.4
Ieri h: 19:00 sereno Sereno 19 7 45 1013 10 S/SO 7.4
Ieri h: 18:30 sereno Sereno 20 7 42 1013 10 SO 13
Ieri h: 18:00 sereno Sereno 20 7 42 1013 10 SO 13
Ieri h: 17:30 sereno Sereno 21 7 40 1012 10 SO 14.8
Ieri h: 17:00 sereno Sereno 22 6 35 1012 10 S 14.8
Ieri h: 16:30 sereno Sereno 22 7 37 1012 10 S 18.5
Ieri h: 16:00 sereno Sereno 23 7 35 1011 10 S 20.3
Ieri h: 15:30 sereno Sereno 22 7 37 1011 10 S 22.2
Ieri h: 15:00 sereno Sereno 23 8 38 1012 10 S 24